Weather History for Fort Leonard Wood, MO

Change the Weather History Date:

Sunday, November 25, 2012

  Actual Average Record
Temperature  
Mean Temperature 48 °F -  
Max Temperature 60 °F 51 °F 69 °F (2006)
Min Temperature 37 °F 37 °F 21 °F (2005)
Degree Days  
Heating Degree Days 16    
Moisture  
Dew Point 25 °F    
Average Humidity 43    
Maximum Humidity 62    
Minimum Humidity 28    
Precipitation  
Precipitation 0.00 in - - ()
Sea Level Pressure  
Sea Level Pressure 29.96 in    
Wind  
Wind Speed 7 mph (SSW)    
Max Wind Speed 12 mph    
Max Gust Speed -    
Visibility 10 miles    
Events      
Averages and records for this station are not official NWS values.
T = Trace of Precipitation, MM = Missing Value Source: NWS Daily Summary

Daily Weather History Graph

Daily Weather History Graph

Search for Another Location

Airport:

Trip Planner

Search our weather history database for the weather conditions in past years. The results will help you decide how hot, cold, wet, or windy it might be!

Date:

Astronomy

Nov. 25, 2012 Rise Set
Actual Time 6:59 AM CST 4:51 PM CST
Civil Twilight 6:31 AM CST 5:20 PM CST
Nautical Twilight 5:58 AM CST 5:52 PM CST
Astronomical Twilight 5:27 AM CST 6:23 PM CST
Moon 3:07 PM CST (11/25) 4:16 AM CST (11/25)
Length of Visible Light 10h 49m
Length of Day
9h 51m
Waxing Gibbous, 93% of the Moon is Illuminated
Nov 25
Waxing Gibbous
Nov 28
Full
Dec 6
Last Quarter
Dec 13
New
Dec 19
First Quarter

Hourly Weather History & Observations

Time (CST) Temp. Windchill Dew Point Humidity Pressure Visibility Wind Dir Wind Speed Gust Speed Precip Events Conditions
12:55 AM 39.6 °F 34.0 °F 19.0 °F 44% 30.01 in 10.0 mi South 8.1 mph - N/A   Clear
1:55 AM 40.1 °F 34.1 °F 19.9 °F 44% 29.99 in 10.0 mi South 9.2 mph - N/A   Clear
2:55 AM 38.3 °F 32.5 °F 21.2 °F 50% 29.99 in 10.0 mi South 8.1 mph - N/A   Clear
3:55 AM 37.8 °F 31.8 °F 21.2 °F 51% 29.97 in 10.0 mi South 8.1 mph - N/A   Clear
4:55 AM 37.9 °F 31.5 °F 21.6 °F 52% 29.96 in 10.0 mi South 9.2 mph - N/A   Clear
5:55 AM 38.1 °F 31.7 °F 21.6 °F 51% 29.95 in 10.0 mi South 9.2 mph - N/A   Clear
6:55 AM 37.8 °F 33.3 °F 21.7 °F 53% 29.96 in 10.0 mi SSW 5.8 mph - N/A   Clear
7:55 AM 38.7 °F - 22.1 °F 51% 29.98 in 10.0 mi Calm Calm - N/A   Clear
8:55 AM 43.7 °F 40.3 °F 23.0 °F 44% 29.99 in 10.0 mi SW 5.8 mph - N/A   Clear
9:55 AM 49.5 °F - 23.0 °F 35% 29.99 in 10.0 mi SW 8.1 mph - N/A   Clear
10:55 AM 54.0 °F - 23.9 °F 31% 29.97 in 10.0 mi West 11.5 mph - N/A   Clear
11:55 AM 57.4 °F - 25.0 °F 29% 29.93 in 10.0 mi West 8.1 mph - N/A   Clear
12:55 PM 59.2 °F - 26.1 °F 28% 29.91 in 10.0 mi SSW 8.1 mph - N/A   Clear
1:55 PM 59.7 °F - 27.0 °F 29% 29.90 in 10.0 mi Variable 5.8 mph - N/A   Clear
2:55 PM 59.9 °F - 27.5 °F 29% 29.90 in 10.0 mi NW 4.6 mph - N/A   Clear
3:55 PM 60.1 °F - 28.0 °F 30% 29.91 in 10.0 mi Calm Calm - N/A   Clear
4:55 PM 54.5 °F - 28.0 °F 36% 29.91 in 10.0 mi NNW 4.6 mph - N/A   Clear
5:55 PM 52.3 °F - 27.9 °F 39% 29.93 in 10.0 mi North 4.6 mph - N/A   Clear
6:55 PM 50.0 °F - 28.2 °F 43% 29.95 in 10.0 mi NE 4.6 mph - N/A   Clear
7:55 PM 48.4 °F - 28.2 °F 46% 29.96 in 10.0 mi NE 5.8 mph - N/A   Clear
8:55 PM 46.9 °F - 28.4 °F 49% 29.98 in 10.0 mi NE 5.8 mph - N/A   Clear
9:55 PM 45.3 °F 42.3 °F 29.1 °F 53% 29.98 in 10.0 mi ENE 5.8 mph - N/A   Clear
10:55 PM 44.1 °F 40.1 °F 28.9 °F 55% 29.99 in 10.0 mi NE 6.9 mph - N/A   Clear
11:55 PM 41.4 °F 38.4 °F 29.3 °F 62% 29.99 in 10.0 mi NE 4.6 mph - N/A   Clear